map of TTJ home
TTJ - Airport
Location
City:  Tottori, Tottori, Japan
Name:Tottori Airport
ICAO:RJOR
IATA:TTJ

Details
Type:Airport (Aerodrome, Airfield)
Latitude:3531'48"N (35.530069)
Longitude:13410'00"E (134.166553)
Datum:WGS 1984
Elevation:65 ft (20 m)
Variation:8.10W (WMM2015v2 magnetic declination)
-0.07 annual change
Runways:1
Longest:6562 × 150 ft (2000 × 45.5 m), paved

Time
Time Zone:UTC+9
Local Time:

Weather
METAR:RJOR 041200Z 33009KT 9999 FEW025 SCT035 BKN060 08/01 Q1022

Related Locations
Nearby:
Farthest:SSMT: 12013 mi / 19333 km
Mostardas, RS, BR

Find:

   beyond  
but within

Other Information
Maps:
NOTAMs:
Links:
Sources:

  
  • flag of Japan
  • flag of Tottori
  

Sectional Chart

Flight Planning
at skyvector.com

Satellite Image

Google Maps Satellite view

 

Copyright © 2004-2019 Karl L. Swartz. All rights reserved.
The Great Circle Mapper name and logo are trademarks of the Great Circle Mapper.
All other trademarks mentioned herein belong to their respective owners.
Please see credits for attibutions and further copyright information.

  Follow gcmap on Facebook Follow gcmap on Twitter GCmap on LinkedIn

hCard Microformat

Geo Microformat